Weather History for Minneapolis Flying Cloud, MN

Change the Weather History Date:

Friday, January 25, 2013

  Actual Average Record
Temperature  
Mean Temperature 12 °F -  
Max Temperature 19 °F 22 °F 46 °F (2002)
Min Temperature 3 °F 8 °F -8 °F (2009)
Degree Days  
Heating Degree Days 53    
Moisture  
Dew Point 4 °F    
Average Humidity 64    
Maximum Humidity 74    
Minimum Humidity 52    
Precipitation  
Precipitation 0.00 in - - ()
Sea Level Pressure  
Sea Level Pressure 30.10 in    
Wind  
Wind Speed 12 mph (West)    
Max Wind Speed 24 mph    
Max Gust Speed 37 mph    
Visibility 9 miles    
Events Snow    
Averages and records for this station are not official NWS values.
T = Trace of Precipitation, MM = Missing Value Source: NWS Daily Summary

Daily Weather History Graph

Daily Weather History Graph

Search for Another Location

Airport:

Trip Planner

Search our weather history database for the weather conditions in past years. The results will help you decide how hot, cold, wet, or windy it might be!

Date:

Astronomy

Jan. 25, 2013 Rise Set
Actual Time 7:40 AM CST 5:12 PM CST
Civil Twilight 7:08 AM CST 5:44 PM CST
Nautical Twilight 6:32 AM CST 6:20 PM CST
Astronomical Twilight 5:58 AM CST 6:54 PM CST
Moon 4:10 PM CST (1/25) 6:20 AM CST (1/25)
Length of Visible Light 10h 36m
Length of Day
9h 32m
Waxing Gibbous, 98% of the Moon is Illuminated
Jan 25
Waxing Gibbous
Jan 26
Full
Feb 3
Last Quarter
Feb 10
New
Feb 17
First Quarter

Hourly Weather History & Observations

Time (CST) Temp. Windchill Dew Point Humidity Pressure Visibility Wind Dir Wind Speed Gust Speed Precip Events Conditions
12:53 AM 15.1 °F 1.8 °F 6.1 °F 68% 30.20 in 10.0 mi SSW 11.5 mph - N/A   Overcast
1:53 AM 15.1 °F 3.3 °F 7.0 °F 70% 30.14 in 10.0 mi South 9.2 mph - 0.00 in   Overcast
2:53 AM 16.0 °F 2.9 °F 7.0 °F 68% 30.12 in 10.0 mi SSW 11.5 mph 20.7 mph N/A   Overcast
3:53 AM 16.0 °F 2.9 °F 7.0 °F 68% 30.07 in 10.0 mi SSW 11.5 mph - N/A   Overcast
4:53 AM 17.1 °F 5.8 °F 6.1 °F 62% 30.03 in 10.0 mi SSW 9.2 mph - N/A   Overcast
5:46 AM 17.6 °F 4.3 °F 6.8 °F 63% 29.96 in 10.0 mi SW 12.7 mph 21.9 mph N/A   Overcast
5:53 AM 18.0 °F 4.2 °F 6.1 °F 60% 30.01 in 10.0 mi SW 13.8 mph - N/A   Overcast
6:53 AM 17.1 °F 3.6 °F 7.0 °F 65% 29.99 in 10.0 mi WSW 12.7 mph - N/A   Overcast
7:53 AM 17.1 °F 6.6 °F 8.1 °F 68% 30.00 in 10.0 mi WSW 8.1 mph - N/A   Overcast
8:19 AM 17.6 °F 7.3 °F 8.6 °F 68% 29.94 in 10.0 mi West 8.1 mph - N/A   Mostly Cloudy
8:49 AM 17.6 °F 6.4 °F 10.4 °F 73% 29.94 in 10.0 mi WSW 9.2 mph - N/A   Mostly Cloudy
8:53 AM 18.0 °F 7.7 °F 10.0 °F 71% 29.99 in 10.0 mi WSW 8.1 mph - N/A   Mostly Cloudy
9:22 AM 19.4 °F 6.6 °F 10.4 °F 68% 29.95 in 2.5 mi West 12.7 mph 20.7 mph 0.00 in Snow Light Snow
9:24 AM 19.4 °F - 12.2 °F 74% 29.95 in 1.8 mi North - - 0.00 in Snow Light Snow
9:30 AM 19.4 °F - 12.2 °F 74% 29.95 in 3.0 mi North - - 0.00 in Snow Light Snow
9:53 AM 18.0 °F 0.2 °F 3.0 °F 52% 30.01 in 10.0 mi WNW 24.2 mph 36.8 mph 0.00 in   Unknown
10:53 AM 17.1 °F 0.1 °F 3.0 °F 54% 30.04 in 10.0 mi WNW 20.7 mph 29.9 mph N/A   Clear
11:53 AM 16.0 °F -1.3 °F 1.9 °F 54% 30.06 in 10.0 mi West 20.7 mph 27.6 mph N/A   Partly Cloudy
12:53 PM 15.1 °F -0.6 °F 1.0 °F 54% 30.09 in 10.0 mi WNW 16.1 mph 26.5 mph N/A   Clear
1:53 PM 15.1 °F -2.5 °F 1.0 °F 54% 30.10 in 10.0 mi WNW 20.7 mph 26.5 mph N/A   Clear
2:53 PM 15.1 °F 1.1 °F 1.0 °F 54% 30.14 in 10.0 mi WNW 12.7 mph 24.2 mph N/A   Clear
3:53 PM 12.9 °F -2.8 °F -0.0 °F 56% 30.16 in 10.0 mi WNW 15.0 mph 24.2 mph N/A   Clear
4:53 PM 12.0 °F -2.7 °F -0.0 °F 59% 30.18 in 10.0 mi NW 12.7 mph - N/A   Clear
5:53 PM 10.0 °F -3.7 °F -0.9 °F 61% 30.21 in 10.0 mi NW 10.4 mph - N/A   Clear
6:53 PM 9.0 °F -3.2 °F -0.9 °F 64% 30.25 in 10.0 mi WNW 8.1 mph - N/A   Clear
7:53 PM 8.1 °F -4.3 °F -2.0 °F 64% 30.27 in 10.0 mi WNW 8.1 mph - N/A   Clear
8:53 PM 7.0 °F -7.5 °F -2.9 °F 64% 30.30 in 10.0 mi NW 10.4 mph - N/A   Clear
9:53 PM 6.1 °F -7.8 °F -2.9 °F 67% 30.31 in 10.0 mi NNW 9.2 mph - N/A   Clear
10:53 PM 5.0 °F -5.6 °F -4.0 °F 66% 30.33 in 10.0 mi NW 5.8 mph - N/A   Clear
11:53 PM 3.9 °F -5.3 °F -4.0 °F 70% 30.35 in 10.0 mi NNW 4.6 mph - N/A   Clear